テンペル-タットル彗星

55P/Tempel-Tuttle (1998)

English version
Home page
Updated on September 15, 1998

---------------------------------------------------------------------

・ プロフィール

符号 55P/1997 E1
検出日 1997年 3月 4日
検出光度 22.5等
検出者 K. J. Meech, O. R. Hainaut and J. Bauer (Mauna Kea)

・ 軌道要素

   The following improved orbital elements by Kenji Muraoka, 
  are from 348 observations 1866 to 1998, including 9 planets, 
  and 5 minor planets perturbations and non-gravitational effect 
  of style II.   The mean residual is +/- 1.08 arc seconds.

      Epoch  =  1998 Mar.  8.0  TT       JDT = 2450880.5
          T  =  1998 Feb. 28.09752       +/- 0.00011 (m.e.) TT
       Peri. =  172.49873                +/- 0.00017
       Node  =  235.25865                +/- 0.00010   (2000.0)
       Incl. =  162.48615                +/- 0.00002
          q  =    0.9765761              +/- 0.0000003 AU
          e  =    0.9055183              +/- 0.0000000
          a  =   10.3361455              +/- 0.0000003 AU
          n  =    0.02965966             +/- 0.00000000
          P  =   33.231                  +/- 0.0000015  years
         A1  =   -0.401                  +/- 0.007
         A2  =   +0.00880                +/- 0.00000

・ 星図

・ 1997年 9月29日〜1998年 1月27日
・ 1998年 1月27日〜1998年 8月25日

・ 光度変化

        m1 = 15.0 + 5 logΔ +  7.0 log r  [    ,-100]  (              〜1997年11月20日)
        m1 =  7.5 + 5 logΔ + 35.0 log r  [-100, -40]  (1997年11月20日〜1998年 1月19日)
        m1 =  8.5 + 5 logΔ + 20.0 log r  [ -40,    ]  (1998年 1月19日〜               )

---------------------------------------------------------------------

軌道要素は村岡健治氏の計算によるものです。
星図は StellaNavigator Ver.2.0 for Windows (アストロアーツ 編著 / アスキー出版局刊) で作成したものです。
光度グラフはComet for Windowsで作成したものです。

---------------------------------------------------------------------

Copyright(C) Seiichi Yoshida (comet@aerith.net). All rights reserved.